Weather History for KCRP - August, 2014

Change the Weather History Date:

Sunday, August 10, 2014

  Actual Average Record
Temperature  
Mean Temperature 86 °F 85 °F  
Max Temperature 95 °F 95 °F 103 °F (1962)
Min Temperature 77 °F 75 °F 69 °F (1989)
Degree Days  
Heating Degree Days 0 0  
Month to date heating degree days 0 0  
Since 1 June heating degree days 0 0  
Since 1 July heating degree days 0 0  
Cooling Degree Days 21 20  
Month to date cooling degree days 212 200  
Year to date cooling degree days 2245 2150  
Since 1 June cooling degree days 1439 1309  
Growing Degree Days 36 (Base 50)    
Moisture  
Dew Point 76 °F    
Average Humidity 75    
Maximum Humidity 97    
Minimum Humidity 52    
Precipitation  
Precipitation 0.13 in 0.07 in 6.93 in (1980)
Month to date precipitation 0.87 0.61  
Year to date precipitation 10.12 17.03  
Snow  
Snow 0.00 in - - ()
Month to date snowfall 0.0  
Since 1 June snowfall 0.0  
Since 1 July snowfall 0.0  
Snow Depth 0.00 in    
Sea Level Pressure  
Sea Level Pressure 29.98 in    
Wind  
Wind Speed 10 mph (SSE)    
Max Wind Speed 22 mph    
Max Gust Speed 26 mph    
Visibility 10 miles    
Events Rain , Thunderstorm    
T = Trace of Precipitation, MM = Missing Value Source: NWS Daily Summary

Daily Weather History Graph

Daily Weather History Graph

Search for Another Location

Airport or City:

Trip Planner

Search our weather history database for the weather conditions in past years. The results will help you decide how hot, cold, wet, or windy it might be!

Date:

Astronomy

Aug. 10, 2014 Rise Set
Actual Time 6:57 AM CDT 8:12 PM CDT
Civil Twilight 6:33 AM CDT 8:37 PM CDT
Nautical Twilight 6:03 AM CDT 9:06 PM CDT
Astronomical Twilight 5:33 AM CDT 9:37 PM CDT
Moon 8:07 PM CDT (8/10) 6:47 AM CDT (8/10)
Length of Visible Light 14h 04m
Length of Day
13h 14m
Full, 100% of the Moon is Illuminated
Aug 10
Full
Aug 10
Full
Aug 17
Last Quarter
Aug 25
New
Sep 2
First Quarter

Hourly Weather History & Observations

Time (CDT) Temp. Heat Index Dew Point Humidity Pressure Visibility Wind Dir Wind Speed Gust Speed Precip Events Conditions
12:51 AM 82.9 °F 92.8 °F 78.1 °F 85% 30.00 in 10.0 mi SSE 9.2 mph - N/A   Mostly Cloudy
1:51 AM 82.0 °F 90.2 °F 77.0 °F 85% 30.00 in 10.0 mi South 8.1 mph - N/A   Overcast
2:51 AM 81.0 °F 87.9 °F 77.0 °F 88% 29.97 in 10.0 mi SSE 6.9 mph - N/A   Mostly Cloudy
3:51 AM 81.0 °F 87.9 °F 77.0 °F 88% 29.96 in 10.0 mi South 4.6 mph - N/A   Mostly Cloudy
4:51 AM 79.0 °F - 75.9 °F 90% 29.95 in 10.0 mi South 5.8 mph - N/A   Scattered Clouds
5:51 AM 78.1 °F - 75.9 °F 93% 29.96 in 10.0 mi Calm Calm - N/A   Partly Cloudy
6:51 AM 78.1 °F - 75.9 °F 93% 29.97 in 9.0 mi SSE 3.5 mph - N/A   Mostly Cloudy
7:51 AM 79.0 °F - 77.0 °F 94% 29.99 in 10.0 mi SSE 3.5 mph - N/A   Mostly Cloudy
8:51 AM 84.2 °F 96.1 °F 78.8 °F 84% 30.00 in 10.0 mi South 9.2 mph - N/A   Mostly Cloudy
9:51 AM 88.0 °F 98.5 °F 75.9 °F 67% 30.00 in 10.0 mi South 12.7 mph 18.4 mph N/A   Scattered Clouds
10:51 AM 91.0 °F 100.4 °F 73.9 °F 57% 30.00 in 10.0 mi South 10.4 mph 16.1 mph N/A   Scattered Clouds
11:51 AM 93.0 °F 101.9 °F 73.0 °F 52% 30.01 in 10.0 mi SE 8.1 mph - N/A   Mostly Cloudy
12:51 PM 87.1 °F 98.8 °F 77.0 °F 72% 30.01 in 7.0 mi SE 11.5 mph 20.7 mph 0.01 in Rain Rain
1:05 PM 84.0 °F 92.6 °F 75.9 °F 76% 30.01 in 7.0 mi NE 6.9 mph - 0.11 in Rain , Thunderstorm Light Thunderstorms and Rain
1:28 PM 91.0 °F 104.2 °F 77.0 °F 63% 30.00 in 10.0 mi SSE 12.7 mph 16.1 mph 0.12 in Thunderstorm Mostly Cloudy
1:51 PM 91.0 °F 102.9 °F 75.9 °F 61% 30.00 in 10.0 mi SSE 13.8 mph - 0.12 in   Mostly Cloudy
2:51 PM 93.9 °F 103.4 °F 73.0 °F 51% 29.98 in 10.0 mi ESE 16.1 mph 23.0 mph N/A   Mostly Cloudy
4:51 PM 93.0 °F 101.9 °F 73.0 °F 52% 29.94 in 10.0 mi SE 16.1 mph - N/A   Mostly Cloudy
5:51 PM 91.9 °F 101.3 °F 73.9 °F 55% 29.93 in 10.0 mi SE 18.4 mph - N/A   Mostly Cloudy
6:51 PM 89.6 °F 99.8 °F 75.2 °F 62% 29.92 in 10.0 mi SE 19.6 mph - N/A   Mostly Cloudy
7:51 PM 87.1 °F 96.3 °F 75.0 °F 67% 29.92 in 10.0 mi SE 18.4 mph - N/A   Scattered Clouds
8:51 PM 84.9 °F 95.3 °F 77.0 °F 77% 29.94 in 10.0 mi SE 11.5 mph - N/A   Scattered Clouds
9:51 PM 84.0 °F 93.7 °F 77.0 °F 79% 29.97 in 10.0 mi SE 10.4 mph - N/A   Mostly Cloudy
11:51 PM 82.0 °F 90.2 °F 77.0 °F 85% 30.01 in 10.0 mi SSE 8.1 mph - N/A   Mostly Cloudy